| time (UTC) | temp F | wind direction | speed MPH | gust MPH | rain 1hr in | rain 24hr in | rain mn in | humidity % | barometer mb |
| 20260503211536 | 65 | 160 | 2.0 | 10.0 | 0.00 | 0.00 | 0.00 | 30 | 975.4 |
| 20260503211027 | 65 | 67 | 1.0 | 7.0 | 0.00 | 0.00 | 0.00 | 29 | 975.4 |
| 20260503210526 | 65 | 51 | 3.0 | 9.0 | 0.00 | 0.00 | 0.00 | 30 | 975.4 |
| 20260503210026 | 65 | 5 | 2.0 | 9.0 | 0.00 | 0.00 | 0.00 | 30 | 975.5 |
| 20260503205533 | 65 | 30 | 4.0 | 9.0 | 0.00 | 0.00 | 0.00 | 30 | 975.7 |
| 20260503205026 | 66 | 17 | 2.0 | 10.0 | 0.00 | 0.00 | 0.00 | 29 | 975.7 |
| 20260503204525 | 65 | 59 | 2.0 | 10.0 | 0.00 | 0.00 | 0.00 | 29 | 975.8 |
| 20260503204024 | 65 | 44 | 2.0 | 6.0 | 0.00 | 0.00 | 0.00 | 29 | 975.7 |
| 20260503203527 | 65 | 360 | 2.0 | 6.0 | 0.00 | 0.00 | 0.00 | 29 | 975.7 |
| 20260503203024 | 65 | 9 | 1.0 | 6.0 | 0.00 | 0.00 | 0.00 | 28 | 975.8 |
| 20260503202523 | 64 | 271 | 2.0 | 8.0 | 0.00 | 0.00 | 0.00 | 28 | 975.9 |
| 20260503202022 | 64 | 24 | 2.0 | 8.0 | 0.00 | 0.00 | 0.00 | 28 | 975.9 |
| 20260503201522 | 65 | 242 | 2.0 | 6.0 | 0.00 | 0.00 | 0.00 | 30 | 976.0 |
| 20260503201021 | 65 | 246 | 2.0 | 8.0 | 0.00 | 0.00 | 0.00 | 31 | 976.1 |
| 20260503200522 | 64 | 266 | 2.0 | 8.0 | 0.00 | 0.00 | 0.00 | 31 | 976.1 |
| 20260503200022 | 64 | 10 | 2.0 | 7.0 | 0.00 | 0.00 | 0.00 | 31 | 976.1 |
| 20260503195521 | 64 | 27 | 3.0 | 10.0 | 0.00 | 0.00 | 0.00 | 31 | 976.3 |
| 20260503195021 | 64 | 32 | 4.0 | 10.0 | 0.00 | 0.00 | 0.00 | 31 | 976.3 |
| 20260503194521 | 64 | 360 | 3.0 | 7.0 | 0.00 | 0.00 | 0.00 | 32 | 976.5 |
| 20260503194021 | 64 | 9 | 1.0 | 7.0 | 0.00 | 0.00 | 0.00 | 32 | 976.6 |
| 20260503193519 | 65 | 250 | 1.0 | 6.0 | 0.00 | 0.00 | 0.00 | 31 | 976.7 |
| 20260503193034 | 64 | 22 | 1.0 | 9.0 | 0.00 | 0.00 | 0.00 | 31 | 976.7 |
| 20260503192518 | 64 | 42 | 2.0 | 6.0 | 0.00 | 0.00 | 0.00 | 31 | 976.7 |
| 20260503192018 | 63 | 270 | 1.0 | 8.0 | 0.00 | 0.00 | 0.00 | 35 | 976.8 |
| 20260503191518 | 63 | 17 | 3.0 | 8.0 | 0.00 | 0.00 | 0.00 | 32 | 976.9 |
| 20260503191021 | 63 | 202 | 1.0 | 8.0 | 0.00 | 0.00 | 0.00 | 30 | 977.0 |
| 20260503190517 | 63 | 42 | 3.0 | 8.0 | 0.00 | 0.00 | 0.00 | 29 | 977.0 |
| 20260503190030 | 64 | 238 | 2.0 | 7.0 | 0.00 | 0.00 | 0.00 | 35 | 977.0 |
| 20260503185516 | 63 | 184 | 2.0 | 6.0 | 0.00 | 0.00 | 0.00 | 32 | 977.3 |
| 20260503185016 | 63 | 247 | 2.0 | 6.0 | 0.00 | 0.00 | 0.00 | 31 | 977.2 |
| 20260503184518 | 62 | 267 | 2.0 | 7.0 | 0.00 | 0.00 | 0.00 | 31 | 977.5 |
| 20260503184015 | 62 | 260 | 1.0 | 18.0 | 0.00 | 0.00 | 0.00 | 32 | 977.5 |
| 20260503183614 | 62 | 28 | 4.0 | 18.0 | 0.00 | 0.00 | 0.00 | 30 | 977.7 |
| 20260503183013 | 61 | 269 | 3.0 | 10.0 | 0.00 | 0.00 | 0.00 | 31 | 977.6 |
| 20260503182518 | 61 | 270 | 3.0 | 8.0 | 0.00 | 0.00 | 0.00 | 31 | 977.6 |
| 20260503182017 | 61 | 5 | 3.0 | 8.0 | 0.00 | 0.00 | 0.00 | 34 | 977.9 |
| 20260503181513 | 61 | 30 | 2.0 | 9.0 | 0.00 | 0.00 | 0.00 | 32 | 977.9 |
| 20260503181014 | 62 | 27 | 3.0 | 11.0 | 0.00 | 0.00 | 0.00 | 33 | 978.0 |
| 20260503180511 | 61 | 9 | 1.0 | 11.0 | 0.00 | 0.00 | 0.00 | 36 | 977.9 |
| 20260503180012 | 61 | 31 | 2.0 | 7.0 | 0.00 | 0.00 | 0.00 | 36 | 978.0 |
| 20260503175509 | 60 | 244 | 2.0 | 6.0 | 0.00 | 0.00 | 0.00 | 37 | 978.1 |
| 20260503175009 | 60 | 15 | 2.0 | 6.0 | 0.00 | 0.00 | 0.00 | 33 | 978.2 |
| 20260503174509 | 59 | 257 | 2.0 | 6.0 | 0.00 | 0.00 | 0.00 | 38 | 978.2 |
| 20260503174008 | 59 | 36 | 2.0 | 6.0 | 0.00 | 0.00 | 0.00 | 36 | 978.3 |
| 20260503173508 | 60 | 80 | 1.0 | 6.0 | 0.00 | 0.00 | 0.00 | 36 | 978.3 |
| 20260503173016 | 59 | 273 | 2.0 | 6.0 | 0.00 | 0.00 | 0.00 | 38 | 978.3 |
| 20260503172506 | 59 | 211 | 3.0 | 9.0 | 0.00 | 0.00 | 0.00 | 35 | 978.6 |
| 20260503172007 | 58 | 205 | 2.0 | 11.0 | 0.00 | 0.00 | 0.00 | 37 | 978.7 |
| 20260503171506 | 59 | 271 | 4.0 | 11.0 | 0.00 | 0.00 | 0.00 | 35 | 978.8 |
| 20260503171007 | 58 | 250 | 2.0 | 8.0 | 0.00 | 0.00 | 0.00 | 35 | 978.8 |
| 20260503170504 | 59 | 270 | 2.0 | 9.0 | 0.00 | 0.00 | 0.00 | 39 | 978.9 |
| 20260503160108 | 56 | 137 | 2.0 | 7.0 | 0.00 | 0.00 | 0.00 | 40 | 979.5 |
| 20260503150549 | 53 | 161 | 2.0 | 7.0 | 0.00 | 0.00 | 0.00 | 44 | 980.1 |
| 20260503131034 | 49 | 256 | 1.0 | 6.0 | 0.00 | 0.00 | 0.00 | 51 | 980.1 |
| 20260503130531 | 48 | 203 | 1.0 | 5.0 | 0.00 | 0.00 | 0.00 | 52 | 979.9 |
| 20260503110512 | 37 | 194 | 0.0 | 2.0 | 0.00 | 0.00 | 0.00 | 83 | 978.9 |
| 20260503100121 | 36 | 193 | 0.0 | 1.0 | 0.00 | 0.00 | 0.00 | 84 | 978.0 |
| 20260503081548 | 37 | 193 | 0.0 | 2.0 | 0.00 | 0.00 | 0.00 | 83 | 976.7 |
| 20260503081142 | 37 | 193 | 0.0 | 2.0 | 0.00 | 0.00 | 0.00 | 83 | 976.7 |
| 20260503080541 | 37 | 193 | 0.0 | 4.0 | 0.00 | 0.00 | 0.00 | 83 | 976.6 |
| 20260503072537 | 38 | 193 | 0.0 | 2.0 | 0.00 | 0.00 | 0.00 | 81 | 976.3 |
| 20260503072039 | 39 | 193 | 0.0 | 2.0 | 0.00 | 0.00 | 0.00 | 81 | 976.3 |
| 20260503071541 | 39 | 193 | 0.0 | 2.0 | 0.00 | 0.00 | 0.00 | 81 | 976.3 |
| 20260503071035 | 39 | 193 | 0.0 | 3.0 | 0.00 | 0.00 | 0.00 | 81 | 976.3 |
| 20260503070536 | 38 | 193 | 0.0 | 3.0 | 0.00 | 0.00 | 0.00 | 82 | 976.3 |
| 20260503055026 | 39 | 191 | 0.0 | 1.0 | 0.00 | 0.00 | 0.00 | 79 | 976.2 |
| 20260503054532 | 40 | 191 | 0.0 | 1.0 | 0.00 | 0.00 | 0.00 | 78 | 976.1 |
| 20260503054027 | 40 | 191 | 0.0 | 2.0 | 0.00 | 0.00 | 0.00 | 78 | 976.1 |
| 20260503053523 | 40 | 191 | 0.0 | 2.0 | 0.00 | 0.00 | 0.00 | 77 | 976.1 |
| 20260503053022 | 40 | 191 | 0.0 | 2.0 | 0.00 | 0.00 | 0.00 | 77 | 976.1 |
| 20260503052521 | 40 | 191 | 0.0 | 2.0 | 0.00 | 0.00 | 0.00 | 76 | 976.0 |
| 20260503052026 | 41 | 191 | 0.0 | 2.0 | 0.00 | 0.00 | 0.00 | 76 | 976.1 |
| 20260503051520 | 41 | 191 | 0.0 | 2.0 | 0.00 | 0.00 | 0.00 | 76 | 976.1 |
| 20260503051019 | 41 | 191 | 0.0 | 2.0 | 0.00 | 0.00 | 0.00 | 76 | 976.0 |
| 20260503050517 | 41 | 191 | 0.0 | 3.0 | 0.00 | 0.00 | 0.00 | 76 | 976.0 |
| 20260503050017 | 41 | 191 | 1.0 | 3.0 | 0.00 | 0.00 | 0.00 | 76 | 976.0 |
| 20260503045519 | 41 | 191 | 0.0 | 2.0 | 0.00 | 0.00 | 0.00 | 76 | 975.9 |
| 20260503045016 | 42 | 191 | 0.0 | 4.0 | 0.00 | 0.00 | 0.00 | 75 | 975.9 |
| 20260503044515 | 42 | 191 | 0.0 | 3.0 | 0.00 | 0.00 | 0.00 | 75 | 975.8 |
| 20260503044014 | 42 | 191 | 0.0 | 3.0 | 0.00 | 0.00 | 0.00 | 74 | 975.9 |
| 20260503043518 | 42 | 191 | 0.0 | 2.0 | 0.00 | 0.00 | 0.00 | 74 | 975.9 |
| 20260503043013 | 42 | 191 | 1.0 | 3.0 | 0.00 | 0.00 | 0.00 | 74 | 975.8 |
| 20260503042514 | 42 | 191 | 0.0 | 2.0 | 0.00 | 0.00 | 0.00 | 74 | 975.7 |
| 20260503042012 | 42 | 191 | 0.0 | 4.0 | 0.00 | 0.00 | 0.00 | 74 | 975.7 |
| 20260503041511 | 42 | 191 | 0.0 | 4.0 | 0.00 | 0.00 | 0.00 | 74 | 975.6 |
| 20260503041009 | 42 | 177 | 0.0 | 3.0 | 0.00 | 0.00 | 0.00 | 74 | 975.6 |
| 20260503040511 | 42 | 177 | 1.0 | 3.0 | 0.00 | 0.00 | 0.00 | 73 | 975.5 |
| 20260503040007 | 42 | 177 | 0.0 | 3.0 | 0.00 | 0.00 | 0.00 | 73 | 975.5 |
| 20260503035506 | 42 | 177 | 1.0 | 3.0 | 0.00 | 0.00 | 0.00 | 72 | 975.4 |
| 20260503035009 | 42 | 177 | 0.0 | 1.0 | 0.00 | 0.00 | 0.00 | 72 | 975.5 |
| 20260503034505 | 43 | 177 | 0.0 | 2.0 | 0.00 | 0.00 | 0.00 | 71 | 975.4 |
| 20260503034004 | 43 | 177 | 0.0 | 2.0 | 0.00 | 0.00 | 0.00 | 71 | 975.4 |
| 20260503033504 | 43 | 177 | 0.0 | 2.0 | 0.00 | 0.00 | 0.00 | 70 | 975.4 |
| 20260503033003 | 43 | 177 | 0.0 | 2.0 | 0.00 | 0.00 | 0.00 | 70 | 975.3 |
| 20260503032502 | 44 | 177 | 0.0 | 3.0 | 0.00 | 0.00 | 0.00 | 70 | 975.3 |
| 20260503032001 | 44 | 176 | 0.0 | 3.0 | 0.00 | 0.00 | 0.00 | 69 | 975.3 |
| 20260503031502 | 44 | 176 | 0.0 | 3.0 | 0.00 | 0.00 | 0.00 | 69 | 975.3 |
| 20260503031002 | 44 | 176 | 0.0 | 3.0 | 0.00 | 0.00 | 0.00 | 68 | 975.4 |
| 20260503030600 | 44 | 176 | 1.0 | 3.0 | 0.00 | 0.00 | 0.00 | 69 | 975.5 |
| 20260503030059 | 44 | 176 | 0.0 | 2.0 | 0.00 | 0.00 | 0.00 | 68 | 975.4 |
| 20260503025559 | 44 | 176 | 0.0 | 2.0 | 0.00 | 0.00 | 0.00 | 69 | 975.6 |
| 20260503025059 | 44 | 176 | 0.0 | 4.0 | 0.00 | 0.00 | 0.00 | 69 | 975.6 |
| 20260503024559 | 44 | 176 | 0.0 | 5.0 | 0.00 | 0.00 | 0.00 | 68 | 975.6 |
| 20260503024058 | 44 | 170 | 1.0 | 3.0 | 0.00 | 0.00 | 0.00 | 69 | 975.5 |
| 20260503023558 | 44 | 171 | 0.0 | 3.0 | 0.00 | 0.00 | 0.00 | 69 | 975.6 |
| 20260503023058 | 44 | 171 | 0.0 | 4.0 | 0.00 | 0.00 | 0.00 | 69 | 975.5 |
| 20260503022555 | 44 | 171 | 0.0 | 5.0 | 0.00 | 0.00 | 0.00 | 70 | 975.6 |
| 20260503022057 | 44 | 241 | 0.0 | 2.0 | 0.00 | 0.00 | 0.00 | 69 | 975.5 |
| 20260503021555 | 44 | 241 | 0.0 | 3.0 | 0.00 | 0.00 | 0.00 | 69 | 975.3 |
| 20260503021055 | 45 | 241 | 1.0 | 3.0 | 0.00 | 0.00 | 0.00 | 68 | 975.3 |
| 20260503020552 | 45 | 241 | 0.0 | 3.0 | 0.00 | 0.00 | 0.00 | 67 | 975.3 |
| 20260503020052 | 45 | 241 | 0.0 | 2.0 | 0.00 | 0.00 | 0.00 | 67 | 975.3 |
| 20260503015551 | 45 | 242 | 0.0 | 3.0 | 0.00 | 0.00 | 0.00 | 66 | 975.3 |
| 20260503015051 | 45 | 242 | 0.0 | 4.0 | 0.00 | 0.00 | 0.00 | 66 | 975.2 |
| 20260503014603 | 46 | 241 | 1.0 | 4.0 | 0.00 | 0.00 | 0.00 | 66 | 975.1 |
| 20260503014051 | 46 | 242 | 0.0 | 3.0 | 0.00 | 0.00 | 0.00 | 66 | 975.1 |
| 20260503013549 | 46 | 242 | 0.0 | 2.0 | 0.00 | 0.00 | 0.00 | 65 | 975.2 |
| 20260503013047 | 46 | 242 | 0.0 | 2.0 | 0.00 | 0.00 | 0.00 | 65 | 975.1 |
| 20260503012547 | 46 | 242 | 0.0 | 2.0 | 0.00 | 0.00 | 0.00 | 65 | 975.1 |
| 20260503012046 | 46 | 242 | 0.0 | 1.0 | 0.00 | 0.00 | 0.00 | 64 | 975.0 |
| 20260503011547 | 46 | 242 | 0.0 | 2.0 | 0.00 | 0.00 | 0.00 | 63 | 975.0 |
| 20260503011046 | 47 | 242 | 0.0 | 2.0 | 0.00 | 0.00 | 0.00 | 64 | 975.1 |
| 20260503010542 | 47 | 242 | 0.0 | 1.0 | 0.00 | 0.00 | 0.00 | 62 | 975.0 |
| 20260503010041 | 48 | 242 | 0.0 | 2.0 | 0.00 | 0.00 | 0.00 | 60 | 974.9 |
| 20260503005540 | 48 | 242 | 0.0 | 2.0 | 0.00 | 0.00 | 0.00 | 60 | 974.8 |
| 20260503005040 | 49 | 242 | 0.0 | 2.0 | 0.00 | 0.00 | 0.00 | 57 | 974.7 |
| 20260503004541 | 49 | 242 | 0.0 | 2.0 | 0.00 | 0.00 | 0.00 | 59 | 974.7 |
| 20260503004041 | 49 | 242 | 0.0 | 1.0 | 0.00 | 0.00 | 0.00 | 55 | 974.7 |
| 20260503003539 | 50 | 242 | 0.0 | 4.0 | 0.00 | 0.00 | 0.00 | 54 | 974.5 |
| 20260503003049 | 50 | 242 | 0.0 | 4.0 | 0.00 | 0.00 | 0.00 | 53 | 974.6 |
| 20260503002541 | 50 | 146 | 0.0 | 0.0 | 0.00 | 0.00 | 0.00 | 55 | 974.5 |
| 20260503002039 | 50 | 146 | 0.0 | 0.0 | 0.00 | 0.00 | 0.00 | 54 | 974.5 |
| 20260503001559 | 51 | 146 | 0.0 | 0.0 | 0.00 | 0.00 | 0.00 | 55 | 974.3 |
| 20260503001039 | 51 | 146 | 0.0 | 2.0 | 0.00 | 0.00 | 0.00 | 54 | 974.2 |
| 20260503000538 | 52 | 146 | 0.0 | 3.0 | 0.00 | 0.00 | 0.00 | 52 | 974.1 |
| 20260503000045 | 53 | 146 | 1.0 | 3.0 | 0.00 | 0.00 | 0.00 | 48 | 974.1 |
| 20260502235537 | 53 | 225 | 0.0 | 3.0 | 0.00 | 0.00 | 0.00 | 48 | 974.1 |
| 20260502235037 | 53 | 225 | 2.0 | 3.0 | 0.00 | 0.00 | 0.00 | 48 | 974.0 |
| 20260502234544 | 53 | 224 | 0.0 | 2.0 | 0.00 | 0.00 | 0.00 | 47 | 974.0 |
| 20260502234038 | 54 | 224 | 0.0 | 4.0 | 0.00 | 0.00 | 0.00 | 46 | 974.0 |
| 20260502233538 | 54 | 271 | 1.0 | 9.0 | 0.00 | 0.00 | 0.00 | 47 | 973.9 |
| 20260502233037 | 54 | 21 | 1.0 | 9.0 | 0.00 | 0.00 | 0.00 | 46 | 973.8 |
| 20260502232537 | 54 | 213 | 1.0 | 7.0 | 0.00 | 0.00 | 0.00 | 46 | 973.8 |
| 20260502232037 | 54 | 229 | 2.0 | 7.0 | 0.00 | 0.00 | 0.00 | 46 | 973.7 |
| 20260502231537 | 55 | 200 | 0.0 | 5.0 | 0.00 | 0.00 | 0.00 | 46 | 973.6 |
| 20260502231037 | 55 | 200 | 0.0 | 6.0 | 0.00 | 0.00 | 0.00 | 45 | 973.6 |
| 20260502230538 | 55 | 221 | 2.0 | 6.0 | 0.00 | 0.00 | 0.00 | 45 | 973.6 |
| 20260502230038 | 55 | 271 | 1.0 | 7.0 | 0.00 | 0.00 | 0.00 | 46 | 973.6 |
| 20260502225535 | 55 | 238 | 2.0 | 7.0 | 0.00 | 0.00 | 0.00 | 46 | 973.6 |
| 20260502225037 | 55 | 26 | 1.0 | 5.0 | 0.00 | 0.00 | 0.00 | 45 | 973.5 |
| 20260502224536 | 55 | 23 | 2.0 | 6.0 | 0.00 | 0.00 | 0.00 | 45 | 973.5 |
| 20260502224036 | 56 | 11 | 2.0 | 6.0 | 0.00 | 0.00 | 0.00 | 44 | 973.4 |
| 20260502223536 | 56 | 38 | 0.0 | 4.0 | 0.00 | 0.00 | 0.00 | 44 | 973.4 |
| 20260502223036 | 56 | 211 | 0.0 | 10.0 | 0.00 | 0.00 | 0.00 | 43 | 973.5 |
| 20260502222537 | 57 | 180 | 1.0 | 10.0 | 0.00 | 0.00 | 0.00 | 43 | 973.4 |
| 20260502222035 | 57 | 242 | 2.0 | 9.0 | 0.00 | 0.00 | 0.00 | 42 | 973.3 |
| 20260502221540 | 58 | 234 | 2.0 | 9.0 | 0.00 | 0.00 | 0.00 | 42 | 973.2 |
| 20260502221035 | 58 | 206 | 1.0 | 8.0 | 0.00 | 0.00 | 0.00 | 43 | 973.2 |
| 20260502220534 | 58 | 230 | 3.0 | 9.0 | 0.00 | 0.00 | 0.00 | 42 | 973.1 |
| 20260502220036 | 58 | 248 | 2.0 | 9.0 | 0.00 | 0.00 | 0.00 | 41 | 973.0 |
| 20260502215536 | 58 | 61 | 1.0 | 7.0 | 0.00 | 0.00 | 0.00 | 41 | 973.0 |
| 20260502215034 | 58 | 213 | 2.0 | 8.0 | 0.00 | 0.00 | 0.00 | 40 | 973.0 |
| 20260502214540 | 59 | 171 | 3.0 | 9.0 | 0.00 | 0.00 | 0.00 | 40 | 973.0 |
| 20260502214034 | 60 | 263 | 1.0 | 7.0 | 0.00 | 0.00 | 0.00 | 39 | 972.9 |
| 20260502213533 | 59 | 189 | 2.0 | 8.0 | 0.00 | 0.00 | 0.00 | 40 | 972.8 |
| 20260502213034 | 59 | 246 | 2.0 | 8.0 | 0.00 | 0.00 | 0.00 | 39 | 972.8 |
| 20260502212534 | 60 | 182 | 3.0 | 9.0 | 0.00 | 0.00 | 0.00 | 39 | 972.8 |
| 20260502212033 | 60 | 95 | 2.0 | 12.0 | 0.00 | 0.00 | 0.00 | 40 | 972.8 |